Regional Weather Roundup
Issued by NWS

Home | Current Version | Previous Version | Graphics & Text | Print | Product List | Glossary Off
Versions: 1 2 3 4 5 6 7 8 9 10 11 12 13 14 15 16 17 18 19 20 21 22 23 24 25 26 27 28 29 30 31 32 33 34 35 36 37 38 39 40 41 42 43 44 45 46 47 48 49 50

000
ASUS43 KMKX 211800
RWRWI

WISCONSIN REGIONAL WEATHER ROUNDUP
NATIONAL WEATHER SERVICE MILWAUKEE/SULLIVAN WI
100 PM CDT FRI JUL 21 2017

NOTE: "FAIR" INDICATES FEW OR NO CLOUDS BELOW 12,000 FEET WITH NO
SIGNIFICANT WEATHER AND/OR OBSTRUCTIONS TO VISIBILITY.

WIZ001-002-006>008-014>016-023>028-211900-
NORTHWEST WISCONSIN

CITY           SKY/WX    TMP DP  RH WIND       PRES   REMARKS
SUPERIOR ARPT  NOT AVBL
ASHLAND        CLOUDY    72  68  87 N6        29.95F
6HR MIN TEMP:  63; 6HR MAX TEMP:  75;

HAYWARD        PTSUNNY   80  65  59 S10       29.95F HX  82
6HR MIN TEMP:  61; 6HR MAX TEMP:  80;

SIREN          CLOUDY    79  66  64 S10       29.92F HX  81
CUMBERLAND     CLOUDY    77  64  65 SE9       29.94F
RICE LAKE      CLOUDY    79  66  64 SE10      29.95F HX  81
6HR MIN TEMP:  62; 6HR MAX TEMP:  80;

CHETEK         CLOUDY    81  70  70 SE13      29.95F HX  84
LADYSMITH      CLOUDY    82  67  60 S10G17    29.99F HX  84
EAU CLAIRE     NOT AVBL
MENOMONIE      DRIZZLE   73  70  91 SE8       29.93F
NEW RICHMOND   CLOUDY    74  67  79 SE8       29.91F
OSCEOLA        CLOUDY    76  66  71 SE8       29.94S
$$

WIZ003>005-009-010-017-018-211900-
NORTH CENTRAL WISCONSIN

CITY           SKY/WX    TMP DP  RH WIND       PRES   REMARKS
MANITOWISH WTR CLOUDY    80  66  62 S8        29.99F HX  82
ARBOR VITAE    PTSUNNY   80  65  60 S9        29.99F HX  81
WOODRUFF       PTSUNNY   80  65  60 S9        29.99F HX  81
RHINELANDER    PTSUNNY   80  64  58 SW9       30.00F HX  82
6HR MIN TEMP:  64; 6HR MAX TEMP:  81;

EAGLE RIVER    CLOUDY    80  60  49 SW9       30.00S HX  81
LAND O LAKES   CLOUDY    82  62  51 CALM      30.01F HX  83
PHILLIPS       PTSUNNY   80  66  62 S9        29.98F HX  81
6HR MIN TEMP:  62; 6HR MAX TEMP:  80;

TOMAHAWK         N/A     79  65  60 S5        30.00F HX  81
MEDFORD        CLOUDY    78  64  61 S14       30.00S HX  80
MERRILL        CLOUDY    81  66  61 S8        30.00S HX  83
6HR MIN TEMP:  60; 6HR MAX TEMP:  81;

$$

WIZ029-030-035-036-043>047-211900-
CENTRAL WISCONSIN

CITY           SKY/WX    TMP DP  RH WIND       PRES   REMARKS
WAUSAU         PTSUNNY   80  65  59 S9        29.98S HX  82
6HR MIN TEMP:  65; 6HR MAX TEMP:  81;

MOSINEE        PTSUNNY   79  66  65 S9        30.00F HX  81
MARSHFIELD     CLOUDY    77  66  68 S13       29.99F
6HR MIN TEMP:  64; 6HR MAX TEMP:  78;

STEVENS POINT  CLOUDY    76  65  67 S6        30.00S
WAUPACA        CLOUDY    80  69  70 CALM      29.98F HX  82
WAUTOMA        CLOUDY    77  71  82 CALM      29.98F
6HR MIN TEMP:  65; 6HR MAX TEMP:  79;

WISC RAPIDS    CLOUDY    77  69  76 SW7       30.01R
6HR MIN TEMP:  65; 6HR MAX TEMP:  79;

CAMP DOUGLAS   NOT AVBL
$$

WIZ011>013-019>022-031-037>040-048>050-211900-
NORTHEAST WISCONSIN

CITY           SKY/WX    TMP DP  RH WIND       PRES   REMARKS
ANTIGO         PTSUNNY   80  65  61 SW8       30.01F HX  81
SHAWANO        CLOUDY    83  67  59 SW3       29.97S HX  85
6HR MIN TEMP:  66; 6HR MAX TEMP:  85;

OCONTO         CLOUDY    82  67  59 SW5       29.95F HX  85
STURGEON BAY     N/A     82  71  69 CALM      29.97F HX  86
6HR MIN TEMP:  67; 6HR MAX TEMP:  84;

GREEN BAY      CLOUDY    82  71  69 MISG      29.97S HX  86
6HR MIN TEMP:  66; 6HR MAX TEMP:  83;

MANITOWOC      NOT AVBL
APPLETON       CLOUDY    81  63  54 S7        29.97F HX  82
CLINTONVILLE   CLOUDY    81  64  57 SW7       29.98S HX  82
OSHKOSH        CLOUDY    80  70  71 CALM      29.97F HX  83
6HR MIN TEMP:  68; 6HR MAX TEMP:  83;

$$

WIZ032>034-041-042-053>061-211900-
SOUTHWEST WISCONSIN

CITY           SKY/WX    TMP DP  RH WIND       PRES   REMARKS
LA CROSSE      LGT RAIN  74  71  91 SE5       29.93F
6HR MIN TEMP:  70; 6HR MAX TEMP:  74; 6HR PCP:  0.40;

SPARTA         RAIN      68  67  98 CALM      29.98F
VIROQUA        CLOUDY    69  69 100 SW7       30.00F
BOSCOBEL       LGT RAIN  72  70  93 S7        30.01R FOG
6HR MIN TEMP:  71; 6HR MAX TEMP:  72; 6HR PCP:  0.31;

PRAIRIE DU CHI HVY RAIN  70  68  95 CALM      30.00R
PLATTEVILLE    CLOUDY    75  74  99 N7        29.99S
$$

WIZ056-057-062-063-064-067-068-211900-
SOUTH CENTRAL WISCONSIN

CITY           SKY/WX    TMP DP  RH WIND       PRES   REMARKS
REEDSBURG      LGT RAIN  72  72 100 SW6       30.01R
BARABOO/DELLS  LGT RAIN  74  71  89 S5        30.00R
LONE ROCK      TSTM      73  71  93 W3        30.00R FOG
MINERAL POINT  CLOUDY    73  73 100 CALM      30.01R
MADISON        CLOUDY    80  71  74 W3        29.99R HX  84
6HR MIN TEMP:  69; 6HR MAX TEMP:  80; 6HR PCP: TRACE;

MIDDLETON      CLOUDY    80  72  77 CALM      30.00R HX  84
WATERTOWN      CLOUDY    80  72  76 SE7       29.97F HX  83
MONROE         CLOUDY    79  72  78 SE8       29.98S HX  82
JANESVILLE     NOT AVBL
$$

WIZ051-052-058>065-066-070>072-211900-
SOUTHEAST WISCONSIN

CITY           SKY/WX    TMP DP  RH WIND       PRES   REMARKS
MILWAUKEE      CLOUDY    80  72  76 SE10      29.97F HX  84
6HR MIN TEMP:  74; 6HR MAX TEMP:  83;

WAUKESHA       MOSUNNY   79  70  73 SE8       29.98F HX  81
MILWAUKEE/TIMM PTSUNNY   82  66  57 S6        29.99F HX  85
RACINE         CLOUDY    78  71  79 SE7       30.00F HX  80
6HR MIN TEMP:  71; 6HR MAX TEMP:  82;

KENOSHA        PTSUNNY   83  70  64 SE9       29.97F HX  87
6HR MIN TEMP:  71; 6HR MAX TEMP:  84;

FOND DU LAC    CLOUDY    81  67  62 S7        29.97F HX  83
6HR MIN TEMP:  69; 6HR MAX TEMP:  83;

SHEBOYGAN      CLOUDY    81  72  74 S9        29.98S HX  85
6HR MIN TEMP:  67; 6HR MAX TEMP:  84;

WEST BEND      PTSUNNY   81  64  57 SE6       29.99F HX  82
JUNEAU         CLOUDY    79  69  73 SE3       29.99F HX  81
$$

LSZ147-162-211900-
LAKE SUPERIOR

STATION/POSITION TIME  TEMP    WIND        PRES    WAVE
                       AIR SEA DIR/SP/G            HT/PER
                 (UTC) (F)     (DEG/KT/KT) (MB)    (FT/S)
W MID LAKE BUOY  1650   57 48  120/  4/  4 1015.3R   0
DEVILS ISLAND    1700   64      50/  9/ 11 1014.6R
SAXON HARBOR     1740   69      CALM  /  1 1013.9S
$$

LMZ867-665-643>646-211900-
LAKE MICHIGAN

STATION/POSITION TIME  TEMP    WIND        PRES    WAVE
                       AIR SEA DIR/SP/G            HT/PER
                 (UTC) (F)     (DEG/KT/KT) (MB)    (FT/S)
CHAMBERS ISLAND  1740   81     170/  3/  5 1013.9F
S GREEN BAY BUOY 1700   76 74  180/  2/  4 1014.7
N MID LAKE BUOY  1650   67 68  180/  2/  2 1015.8R   1/ 5
NORTHPORT PIER   1740   75     100/  2/  4 1014.6F
KEWAUNEE LAKESHO 1730   76     180/  7/  8 1014.3F
SHEBOYGAN LAKESH 1700   73     170/ 14/ 14 1014.8F
PORT WASHINGTON  1740   76     140/  3/  5 1015.9F
ATWATER BUOY     1609   72 68  180/  6/  6 1016.3R
MILWAUKEE LAKESH 1730   72     110/  9/  9   N/A
S MID LAKE BUOY  1650   72 71  180/  4/  4 1016.0F   0
KENOSHA   LAKESH 1700   77     150/ 11/ 12 1015.2
$$

TC  - TEMPERATURE IN CELSIUS
VSB - VISIBILITY IN STATUTE MILES
WCI - WIND CHILL INDEX
HX  - HEAT INDEX





USA.gov is the U.S. government's official web portal to all federal, state and local government web resources and services.